Theta_e
295 289 285 288 290 289 288 287 285 287 291 288 286 287 290 291 290 290 290 290 291 292 295 297 298 298 298 298 297 297 297 298 299 299 299 299 298 299 300 301 300 299 300 302
289 284 290 292 291 288 286 285 284 287 290 287 287 287 290 291 290 290 291 290 291 292 293 295 296 297 296 296 296 296 297 297 297 298 298 299 299 299 299 300 300 298 298 299
290 290 292 291 288 287 286 285 285 286 288 288 285 283 287 291 291 292 291 291 291 291 292 293 295 294 294 294 295 296 297 297 297 298 298 297 298 298 296 297 298 297 297 297
290 291 290 288 287 288 283 289 289 288 284 279 285 278 283 288 288 289 289 289 290 291 293 293 293 293 293 293 294 294 295 295 296 297 295 294 294 293 295 296 297 296 296 296
287 288 288 288 288 289 286 290 288 288 284 280 281 276 282 288 285 287 288 289 290 291 293 292 292 293 292 292 292 292 293 294 295 294 293 293 292 293 295 294 293 294 295 295
288 293 291 289 290 290 291 287 288 285 284 275 282 281 280 282 286 288 289 289 291 291 292 293 294 293 292 293 292 292 293 293 294 293 293 292 291 291 291 291 291 291 291 292
285 288 291 292 287 290 289 284 280 276 274 275 283 280 283 288 290 290 289 289 290 290 291 291 290 290 292 292 292 293 293 292 293 292 292 291 291 291 290 290 290 289 289 289
283 279 286 290 288 286 285 285 282 274 275 277 280 278 282 288 292 291 291 289 290 289 292 291 290 291 292 292 292 291 291 291 291 291 291 291 291 291 290 290 289 289 288 289
282 282 288 290 290 290 285 281 286 280 272 275 279 282 284 287 288 290 289 289 288 290 291 289 290 291 291 290 290 290 290 290 291 290 290 289 289 289 288 288 289 288 288 289
290 284 285 287 289 289 287 288 279 279 270 270 277 278 280 281 286 288 287 287 288 290 290 289 289 290 291 290 289 289 289 289 289 289 289 289 288 288 287 287 287 287 287 287
292 288 281 286 284 283 283 282 282 283 280 276 276 278 282 284 287 288 287 288 288 289 289 289 289 290 290 289 287 287 287 287 288 289 288 287 287 287 286 286 286 286 286 286
292 287 281 281 286 288 287 285 284 279 279 279 279 280 287 287 289 290 288 288 289 290 289 289 289 289 288 287 286 286 286 286 287 287 287 287 287 286 284 284 285 285 285 286
290 284 276 279 280 283 282 285 286 285 283 278 278 280 287 288 289 290 288 288 289 289 288 288 288 288 287 286 285 285 285 284 286 287 286 286 285 284 283 283 284 284 284 284
293 285 283 280 279 282 279 282 285 284 278 280 281 284 285 286 287 288 289 289 289 288 288 288 287 288 287 285 284 283 283 284 285 285 285 284 284 284 283 283 283 283 282 282
288 281 284 284 285 282 281 282 283 281 283 280 283 284 288 290 287 289 290 289 288 288 287 288 287 287 287 285 283 283 282 283 284 283 283 283 284 284 283 282 282 282 282 282
285 281 279 279 283 282 280 281 283 285 285 285 286 285 294 295 292 290 290 289 288 288 288 288 288 288 288 285 282 282 282 282 283 282 282 283 282 283 282 282 281 281 281 281
284 282 281 277 277 277 274 279 281 284 286 286 282 288 288 289 289 290 290 290 289 288 288 288 288 288 288 285 283 281 281 282 282 281 281 281 281 281 281 282 281 280 280 280
284 284 283 278 277 272 283 283 287 285 286 288 288 290 289 290 291 292 293 291 290 290 289 288 288 288 287 285 282 282 281 281 281 280 280 280 280 279 280 280 280 280 279 279
287 284 280 278 274 279 284 285 280 280 282 288 289 290 291 290 289 289 294 294 292 291 290 290 290 289 287 284 282 281 280 280 280 279 279 279 279 279 280 279 279 279 279 279
285 285 283 275 271 269 282 281 283 284 278 289 289 290 290 288 284 288 292 294 292 292 291 290 289 289 286 283 282 281 280 279 279 279 279 279 280 279 279 279 279 280 279 280
277 278 278 277 275 276 285 282 284 278 284 285 287 289 288 288 290 290 292 294 294 292 291 290 289 287 285 282 281 280 280 279 280 280 279 279 279 280 279 279 280 279 279 280
276 275 276 278 276 272 286 281 281 287 285 286 286 287 288 289 290 290 290 293 292 291 290 290 288 286 282 282 281 280 279 280 279 278 278 277 277 280 280 277 279 279 279 278
277 281 277 281 281 286 285 285 287 287 287 285 286 286 287 289 288 290 290 290 291 291 289 289 287 284 281 281 282 280 279 279 277 276 274 274 275 278 279 277 277 277 278 276
280 283 280 281 285 286 285 287 286 287 286 287 287 287 288 288 288 287 287 287 287 288 288 287 285 282 280 281 281 281 279 278 276 274 273 273 275 275 275 279 279 277 277 276
280 281 280 279 282 282 286 288 289 288 287 286 286 287 288 288 287 286 286 286 286 287 287 286 284 281 280 280 279 279 278 277 275 274 274 274 274 275 275 276 276 277 278 279
280 280 281 282 287 286 289 290 289 288 288 287 285 284 286 287 287 286 286 285 285 286 286 285 283 282 279 280 278 277 277 277 275 273 274 274 274 274 275 275 276 280 280 280
Wind_Speed
2 2 6 9 9 3 4 7 5 6 6 6 10 10 9 13 9 8 7 6 7 7 6 5 7 7 7 7 9 10 11 12 10 9 9 8 8 9 9 10 16 17 16 18
3 4 4 4 3 2 2 4 1 4 4 4 7 13 13 12 12 10 9 8 8 6 6 5 6 6 7 6 6 7 9 11 11 8 8 4 7 7 7 10 14 16 17 18
6 2 2 3 2 2 4 5 2 2 5 6 6 9 9 7 9 9 5 8 8 7 6 5 6 5 5 5 6 6 7 8 10 11 7 6 3 8 13 12 11 13 17 18
1 4 2 2 2 5 5 4 1 7 4 3 5 6 2 9 9 9 9 8 9 8 7 5 4 4 5 5 6 7 7 9 10 11 8 11 8 7 7 8 8 11 16 18
4 3 1 2 2 4 1 2 2 3 4 4 5 1 7 9 9 11 11 10 9 9 8 7 5 5 5 4 5 6 7 7 8 8 9 8 10 6 6 9 14 15 14 17
3 1 4 4 2 2 6 3 3 2 2 2 10 9 5 8 9 14 14 12 11 9 8 8 6 5 4 4 5 6 7 6 7 8 9 11 11 12 11 12 11 10 10 11
1 2 4 0 3 4 1 3 1 3 1 7 6 5 8 4 6 12 20 15 12 10 8 8 7 6 4 5 5 5 7 7 7 8 9 10 10 10 10 10 9 11 10 10
4 5 8 8 1 3 4 1 4 7 5 4 4 7 8 4 4 8 15 15 13 10 9 9 8 6 5 4 5 6 7 6 7 7 8 8 9 6 7 8 8 8 8 9
5 3 3 2 2 2 3 6 1 2 1 2 7 7 1 1 2 12 15 15 14 12 10 9 8 6 5 5 4 5 6 6 6 7 6 7 7 9 8 9 7 7 9 10
4 2 1 2 2 2 2 5 2 2 2 6 6 6 7 9 11 14 16 16 14 13 11 9 8 7 5 5 4 4 5 5 6 6 6 6 6 7 8 9 10 10 10 11
6 3 3 4 8 9 5 3 3 2 3 4 3 7 2 11 20 22 19 17 16 16 14 11 8 7 6 6 4 4 5 5 5 6 6 6 6 7 8 8 9 9 9 11
3 1 4 9 3 2 5 10 9 6 6 5 1 11 3 1 17 16 17 16 14 16 14 11 9 8 7 6 5 5 4 4 5 6 5 6 6 6 8 8 9 9 10 9
4 4 1 3 0 2 5 6 5 7 3 9 7 5 1 2 11 14 17 17 16 16 13 12 10 9 7 7 6 6 5 4 6 6 6 6 6 7 7 7 8 8 9 10
7 2 5 1 2 5 6 9 15 8 8 12 20 14 5 4 9 13 14 17 17 16 16 13 12 10 8 7 8 6 6 4 5 6 6 6 6 7 6 6 6 6 6 8
4 4 3 13 9 5 5 7 15 18 23 18 17 25 21 12 13 18 17 17 17 17 18 16 14 12 11 8 7 7 6 5 5 6 7 7 6 6 5 5 5 6 6 7
5 2 0 5 8 8 16 12 12 23 24 22 24 34 19 12 13 14 21 22 23 20 20 18 16 14 13 12 8 7 6 6 6 6 7 7 6 5 5 5 5 6 6 6
9 5 3 4 4 4 13 21 25 22 17 24 20 29 3 13 13 19 22 24 26 24 22 22 19 16 14 13 12 9 8 7 5 6 7 7 6 5 6 5 5 6 7 6
9 7 5 1 3 7 6 3 14 23 25 23 23 23 11 13 9 17 22 26 24 23 22 21 18 16 14 12 13 11 8 7 7 5 7 7 6 6 6 6 5 5 5 6
5 6 4 4 5 11 17 6 7 9 10 24 28 31 20 8 4 7 19 22 24 24 23 21 18 18 16 16 14 14 9 8 7 6 7 7 7 6 6 6 7 4 4 5
6 3 5 4 5 9 2 2 1 1 9 12 18 22 13 9 9 11 13 18 18 20 18 18 18 18 18 16 16 16 13 11 8 7 6 7 6 7 7 6 5 5 3 4
5 3 12 6 6 11 9 8 4 4 6 5 5 6 8 12 12 5 7 16 18 19 21 20 19 19 20 18 17 15 14 13 9 8 6 7 5 7 7 6 4 5 5 3
12 10 7 5 6 16 9 6 9 6 3 1 3 5 4 3 5 3 2 13 16 18 19 22 19 17 17 18 18 16 15 12 12 10 8 6 5 6 6 5 5 5 5 2
8 10 10 14 13 3 12 6 8 3 3 2 3 3 4 5 5 5 5 9 12 17 18 18 18 18 16 18 17 18 13 15 13 11 8 6 5 6 6 4 3 3 4 3
6 6 4 4 15 16 11 11 3 3 3 3 3 4 4 4 6 6 6 8 8 13 16 17 17 18 17 16 15 16 18 15 14 12 10 7 8 7 4 4 3 2 4 4
8 11 10 8 10 5 7 13 8 10 10 8 6 5 7 5 6 7 7 7 9 12 14 15 17 16 17 16 14 16 17 17 14 12 10 9 7 7 6 5 5 4 4 4
7 10 12 16 11 7 10 10 14 16 15 16 12 9 8 8 9 7 7 7 9 12 13 13 15 16 16 16 16 17 17 18 16 13 10 8 8 7 7 7 8 11 12 9
Wind_Direction
49 178 205 206 218 29 321 198 217 103 141 178 235 262 235 181 189 211 190 163 122 106 105 63 71 49 26 13 13 9 8 8 6 13 8 17 7 6 6 11 10 7 1 2
97 229 23 4 104 100 288 286 121 35 128 189 276 253 234 185 184 185 188 165 131 130 111 77 64 50 43 16 360 16 15 19 16 13 11 358 12 16 18 12 19 14 13 13
156 139 71 6 74 173 236 244 192 80 156 241 307 272 223 207 140 174 141 120 124 137 127 91 66 47 44 16 351 30 23 25 34 26 12 6 6 19 13 7 9 8 14 19
206 88 123 111 214 196 223 5 359 128 156 250 167 274 212 169 157 172 154 155 161 146 129 121 88 65 63 26 15 26 24 17 19 18 16 32 34 20 355 355 357 16 18 19
218 106 71 141 114 2 147 291 122 159 216 45 203 315 251 139 203 189 175 179 157 153 145 137 136 108 82 34 19 25 27 23 26 28 23 24 31 20 9 9 13 14 15 21
96 135 53 33 76 329 158 95 61 318 205 279 207 178 245 191 212 184 177 169 148 144 147 140 156 118 87 52 29 35 38 16 30 36 30 27 28 17 16 13 14 13 12 12
123 121 108 176 97 3 342 146 357 335 328 232 347 201 247 164 172 177 171 158 149 159 153 154 164 130 95 64 33 40 45 25 22 33 37 31 28 29 23 18 14 11 16 16
166 287 176 179 182 172 188 279 188 225 204 229 29 233 253 6 79 140 154 147 146 165 167 161 146 136 118 86 53 35 50 35 25 29 36 36 28 30 31 25 22 20 22 17
153 223 87 359 98 86 197 219 347 261 313 22 214 252 239 174 179 140 150 154 162 166 168 154 148 148 136 101 77 47 52 46 36 33 40 40 39 33 28 30 29 27 24 22
177 167 235 103 58 218 231 330 138 264 254 257 258 226 233 194 187 166 166 172 171 164 167 156 154 153 141 120 100 68 70 69 54 46 41 45 42 44 34 30 26 31 28 29
111 187 135 143 211 173 157 217 208 302 230 232 277 255 339 183 185 181 177 176 176 170 170 163 155 153 151 129 128 110 90 84 71 66 58 52 46 50 45 37 26 24 26 31
126 212 196 211 121 342 217 220 182 205 231 229 215 256 54 45 185 178 177 178 175 174 169 162 153 152 162 153 149 129 112 107 92 87 71 63 58 49 53 41 35 22 27 27
169 209 193 221 352 163 216 195 224 231 328 239 230 256 11 349 167 188 177 179 177 172 167 164 153 167 165 157 153 140 135 124 97 90 82 70 59 55 51 43 39 32 32 23
51 285 247 241 23 111 197 200 207 201 222 241 244 268 218 206 183 186 183 183 180 176 175 170 165 173 159 163 150 149 141 136 119 101 88 73 63 60 51 48 46 39 34 34
155 237 252 285 282 220 237 209 202 210 233 230 249 250 245 227 197 195 179 177 183 185 182 179 172 174 162 160 147 141 143 141 125 109 96 82 72 65 55 47 54 48 42 37
176 219 277 270 232 227 261 234 215 218 229 241 250 263 258 239 209 172 184 182 189 192 186 182 175 172 168 157 148 144 145 150 131 121 107 101 89 85 64 52 54 57 50 40
164 176 189 267 1 325 279 225 221 227 223 221 222 239 198 220 195 189 186 188 193 192 186 183 179 174 166 158 150 153 146 139 132 128 113 108 104 93 85 57 50 56 58 42
166 165 160 249 19 248 250 207 218 229 239 231 245 246 224 230 213 197 191 188 194 191 187 183 176 169 161 149 143 137 137 136 137 134 118 113 111 104 89 86 62 47 61 54
187 166 176 192 198 299 304 232 183 190 257 222 236 248 231 228 222 229 191 194 190 188 189 186 173 161 153 152 147 137 138 138 141 151 133 126 128 122 108 96 90 46 53 66
180 222 199 144 194 236 265 188 176 151 290 233 225 242 221 156 222 227 189 186 187 185 177 172 169 158 153 154 145 144 151 149 157 156 146 130 136 128 114 107 97 95 55 71
152 168 205 194 231 276 242 171 176 90 249 313 348 257 183 196 216 150 189 183 181 173 170 163 165 165 159 150 150 153 153 160 150 131 132 125 128 123 120 114 98 95 74 47
168 162 185 184 216 267 176 68 192 204 206 332 359 312 245 201 145 155 142 178 167 168 164 163 161 158 156 156 154 156 157 144 137 137 139 128 130 125 115 116 118 111 99 62
206 191 176 190 213 233 201 226 205 158 122 17 321 294 271 178 156 154 155 149 162 163 161 163 160 154 158 161 161 154 150 145 141 132 138 130 122 117 114 98 113 117 108 93
248 179 211 103 251 239 221 251 277 193 247 280 249 271 249 210 171 172 157 145 141 155 161 160 155 157 161 167 162 151 148 144 140 138 144 140 138 133 122 117 113 74 92 75
181 147 201 264 283 318 251 220 216 209 210 195 222 223 214 204 204 173 171 160 153 156 155 162 163 162 164 161 150 147 146 145 144 142 149 150 146 140 127 110 106 98 78 99
186 188 189 226 214 202 226 212 204 227 216 210 192 207 213 190 199 177 179 162 156 157 157 162 162 161 162 162 152 148 152 150 147 148 155 158 151 144 137 131 123 114 108 99